Wind_Speed
23 23 25 22 24 21 22 24 30 25 29 38 35 37 34 33 46 40 36 58 74 79 74 73 72 69 70 68 66 66 61 55 52 47 39 35 33 29 33 36 37 32 31 30
24 25 27 27 22 21 23 28 22 24 34 39 37 34 41 40 44 45 47 46 61 76 80 74 76 68 71 70 69 66 60 65 53 46 43 36 32 31 35 38 36 33 33 31
27 29 27 25 23 18 18 26 30 31 40 42 49 37 30 38 43 48 51 46 54 68 80 74 76 73 70 72 71 71 70 71 55 50 45 43 43 43 40 38 38 38 34 29
25 26 25 23 18 15 14 25 33 32 40 41 36 45 31 30 42 48 49 51 56 62 75 76 78 81 75 74 72 71 53 49 50 54 47 46 43 43 36 40 40 36 30 29
23 25 30 23 19 16 22 26 32 32 33 34 23 36 29 30 32 43 54 54 58 61 72 74 72 76 77 74 72 70 68 67 53 48 51 49 46 45 46 42 41 36 34 36
27 25 26 21 14 16 24 30 30 33 37 41 27 29 25 27 31 27 51 53 52 60 67 71 65 67 69 68 67 61 60 49 52 55 55 48 49 47 44 46 45 44 45 37
26 30 26 15 7 18 22 28 42 39 43 31 23 24 26 24 24 12 28 41 44 54 58 65 63 62 63 64 60 63 52 45 42 34 40 42 45 51 52 47 47 48 45 38
24 30 28 20 20 25 28 35 30 41 45 45 30 22 20 21 20 10 12 29 34 44 49 54 59 56 53 52 55 58 48 53 49 48 33 43 51 43 52 53 50 47 46 36
22 25 28 23 24 27 28 29 33 44 47 40 33 25 14 15 16 10 6 12 28 37 41 44 55 56 44 45 50 48 47 38 44 44 35 33 39 42 54 54 55 48 38 44
21 23 22 25 23 17 29 29 40 47 52 49 46 32 14 7 4 4 9 13 20 28 35 37 55 58 46 45 48 43 35 42 35 31 29 32 40 41 42 42 57 50 43 41
22 23 24 25 21 21 21 22 40 41 45 34 47 19 13 4 3 4 12 15 20 28 31 35 55 52 45 46 47 46 46 47 41 44 30 33 33 41 46 45 59 52 46 37
23 24 23 23 23 23 19 19 30 43 47 39 31 28 16 9 4 3 12 14 21 29 29 40 52 48 41 46 46 49 50 46 44 40 36 24 23 28 26 47 43 53 40 35
24 22 23 17 18 19 18 11 27 28 40 40 23 20 13 11 5 3 5 15 12 24 28 31 49 52 40 43 38 39 43 36 39 37 33 26 34 30 35 44 45 40 36 35
23 20 28 25 18 20 23 18 18 26 35 24 26 23 10 9 9 4 4 10 11 15 25 28 42 55 51 36 32 35 37 32 35 34 42 38 45 37 37 40 35 38 38 40
24 19 23 25 21 23 24 16 14 21 28 29 23 19 11 7 8 8 3 4 8 17 26 21 18 36 43 38 41 42 39 37 36 36 48 47 45 32 44 50 45 43 44 33
21 17 19 24 22 22 17 14 17 14 17 20 18 12 14 13 10 5 3 7 11 17 24 23 29 31 34 41 50 43 44 45 44 40 53 48 46 32 32 54 42 44 35 32
19 16 17 18 16 17 15 13 15 11 13 15 19 26 32 16 6 10 9 11 19 22 22 24 26 34 38 41 45 50 51 47 47 50 56 51 46 44 54 42 35 44 39 35
17 16 13 14 13 15 15 17 11 6 10 15 20 24 26 27 14 4 14 17 18 22 22 21 22 27 32 35 38 42 47 51 50 54 53 51 47 51 30 30 41 45 40 47
18 13 11 12 12 15 16 14 6 6 8 10 12 17 20 26 20 11 11 22 20 18 20 21 24 27 32 36 40 46 50 50 53 55 50 39 31 54 55 41 39 37 27 19
17 16 13 11 11 12 14 13 7 8 9 9 9 13 15 18 18 14 11 14 22 17 17 21 22 26 29 39 41 41 43 48 49 48 42 48 51 54 34 39 33 25 16 13
22 17 14 12 12 14 14 14 10 7 6 6 8 11 12 14 16 18 11 11 12 9 9 13 20 26 29 41 43 33 42 39 35 42 36 38 34 35 33 23 21 17 11 8
23 19 16 13 11 15 16 11 11 7 4 5 7 9 9 10 12 13 15 11 12 14 10 7 11 14 26 33 32 22 24 21 29 36 36 41 38 31 26 20 17 13 8 7
24 21 18 16 13 14 15 17 14 12 10 7 6 6 6 6 6 8 7 6 11 6 8 4 11 21 29 29 21 19 30 25 18 36 32 30 27 28 25 17 12 10 9 8
25 24 20 17 17 12 13 19 18 15 15 11 9 7 3 3 3 1 4 5 6 6 7 8 3 9 24 26 19 28 31 33 44 35 32 29 28 23 15 10 7 4 6 6
26 24 21 19 18 15 15 17 23 20 19 17 13 10 6 2 2 2 3 4 7 7 4 4 4 14 20 25 29 32 39 36 30 26 29 25 21 15 12 8 6 6 7 8
28 22 21 19 18 19 18 18 20 19 21 20 17 13 10 5 4 4 4 4 7 7 6 5 8 18 24 35 23 27 29 26 26 22 21 18 15 13 11 8 8 9 10 9
Wind_Direction
323 322 329 336 321 326 321 318 325 322 320 297 292 287 283 274 260 253 250 234 226 226 228 229 223 214 217 220 210 213 213 210 203 200 202 206 208 211 219 223 225 229 235 238
326 328 339 335 329 331 318 319 326 320 314 314 308 288 267 268 265 259 249 240 228 223 225 221 227 216 215 215 220 220 224 227 198 204 200 211 213 211 216 221 226 229 234 238
330 330 331 329 318 327 314 313 320 326 327 306 307 306 293 260 260 254 251 244 231 221 221 217 220 218 215 216 218 222 233 214 194 195 202 210 215 218 209 217 223 229 233 237
328 334 330 321 318 325 324 322 320 325 323 326 324 319 306 267 247 245 243 242 224 221 219 216 214 223 214 211 216 220 207 214 217 193 212 222 215 224 221 219 222 226 232 235
336 336 338 324 316 329 331 330 334 331 339 333 329 313 319 303 286 254 235 231 218 214 216 216 214 218 219 214 215 222 227 235 231 238 238 238 217 223 221 216 224 225 227 234
348 345 332 325 328 340 344 337 336 334 328 336 332 325 334 323 319 273 230 222 217 211 211 212 210 211 219 218 217 218 225 227 227 241 250 214 217 224 230 218 219 227 230 235
347 352 339 324 347 346 341 344 337 348 350 357 338 340 338 347 345 282 225 215 211 212 209 211 207 203 211 215 215 212 206 204 214 209 210 213 218 222 226 222 235 227 232 230
344 349 351 325 349 3 354 357 356 344 349 350 352 345 347 353 8 354 220 209 204 210 208 208 201 196 205 206 206 209 207 217 228 230 241 243 235 234 224 225 229 218 232 229
348 350 350 355 355 2 2 1 360 357 359 359 346 356 347 355 8 42 108 179 203 207 203 207 198 193 192 197 205 203 206 208 224 223 231 232 238 236 266 227 229 244 231 236
342 347 351 348 351 351 356 359 13 9 5 1 353 357 6 340 19 162 183 200 211 211 204 203 193 197 194 187 196 203 191 201 198 201 222 246 247 257 262 241 232 234 228 231
330 340 345 348 344 335 342 0 4 358 357 2 355 2 2 350 299 189 197 204 206 206 204 202 192 193 185 179 189 201 210 218 221 219 242 253 258 246 256 234 233 224 229 236
320 327 346 347 344 337 349 351 3 354 358 7 11 30 11 7 259 280 195 188 200 195 192 193 196 190 181 175 187 195 208 217 228 231 235 244 265 264 218 204 213 221 226 238
321 330 340 349 348 338 340 343 17 354 1 11 35 15 16 23 39 284 217 198 209 206 188 184 189 192 181 169 175 191 207 210 227 221 226 232 230 229 199 197 205 216 226 237
322 328 328 339 345 342 344 344 8 13 2 18 33 34 11 37 41 89 172 203 214 209 178 178 193 201 178 174 182 204 214 209 220 221 225 227 227 227 217 213 212 225 229 237
327 329 324 327 333 333 338 343 2 31 19 21 24 3 336 344 360 17 123 135 192 198 181 176 200 207 218 198 197 201 212 218 218 225 225 227 240 251 231 221 221 226 233 240
329 329 332 324 333 334 342 345 346 22 17 17 10 357 346 297 324 79 141 141 169 185 190 186 179 195 211 223 225 220 220 230 231 240 223 221 232 234 254 213 239 227 233 252
329 326 334 328 333 324 341 350 334 340 19 24 18 20 16 24 314 193 170 153 165 181 188 195 183 192 202 210 223 233 239 241 237 231 218 221 225 229 215 241 227 210 239 232
341 328 330 332 331 327 337 353 9 27 10 19 7 18 31 34 70 184 183 167 179 182 185 190 194 194 200 208 213 221 228 230 226 224 222 225 233 236 250 273 214 225 226 235
350 331 339 331 325 318 328 348 4 360 358 17 20 21 29 50 70 95 175 177 180 189 195 196 209 211 211 209 213 217 219 218 218 218 220 223 236 237 244 244 206 211 183 151
349 335 310 329 330 322 322 334 344 1 359 12 31 29 38 44 56 93 100 166 186 201 209 212 218 223 219 218 214 214 212 214 213 219 225 234 241 241 240 219 232 210 153 161
333 344 332 305 311 309 312 324 344 350 349 7 26 38 31 41 55 61 120 138 140 172 193 196 204 217 220 214 211 212 219 221 222 226 240 231 231 202 216 192 154 145 138 177
321 330 335 325 301 301 303 301 322 339 330 349 6 28 32 45 63 65 88 121 113 120 131 199 196 214 212 207 201 199 205 218 214 228 220 206 197 166 148 147 155 158 180 220
314 318 326 328 320 304 282 284 291 301 310 330 329 358 28 48 63 79 84 78 110 139 106 180 206 218 204 209 207 203 203 198 199 166 150 155 149 150 152 144 155 188 216 248
300 307 314 320 314 320 299 282 271 280 293 307 322 301 328 37 60 139 104 145 129 140 118 163 156 176 186 190 188 171 165 173 175 158 160 158 148 133 139 169 189 226 254 244
282 298 306 306 307 314 314 303 288 273 272 283 297 294 263 258 175 227 194 178 172 166 178 117 92 102 160 169 160 154 155 151 157 158 141 134 133 145 165 184 210 222 222 217
274 280 304 301 302 307 312 317 308 292 269 272 285 287 251 242 206 217 214 222 212 172 180 185 124 114 126 135 138 144 146 157 144 135 134 138 155 172 183 200 207 208 214 222
Height
5713 5711 5705 5701 5696 5692 5686 5683 5679 5677 5670 5664 5662 5658 5657 5656 5652 5658 5662 5665 5673 5682 5695 5704 5718 5732 5743 5755 5768 5779 5784 5795 5800 5803 5809 5816 5823 5828 5833 5840 5843 5846 5849 5852
5710 5705 5700 5696 5692 5687 5682 5677 5674 5670 5663 5656 5648 5644 5642 5644 5639 5640 5645 5650 5656 5666 5674 5691 5703 5719 5732 5744 5755 5767 5775 5782 5790 5796 5804 5812 5816 5819 5825 5831 5837 5840 5844 5846
5705 5701 5696 5691 5686 5683 5678 5671 5668 5662 5656 5648 5639 5630 5627 5629 5622 5621 5624 5634 5639 5648 5658 5675 5687 5707 5718 5731 5745 5758 5765 5770 5780 5790 5800 5805 5808 5809 5813 5821 5828 5834 5838 5840
5703 5697 5692 5687 5681 5676 5674 5668 5661 5655 5648 5636 5626 5609 5614 5606 5604 5604 5609 5615 5625 5634 5645 5660 5673 5688 5708 5722 5732 5746 5753 5764 5774 5784 5793 5798 5804 5811 5813 5817 5822 5829 5833 5836
5700 5694 5687 5681 5675 5672 5669 5663 5656 5649 5641 5628 5619 5605 5600 5594 5590 5588 5587 5595 5605 5617 5631 5648 5660 5676 5695 5712 5727 5736 5750 5760 5773 5780 5785 5792 5799 5804 5805 5811 5818 5823 5827 5829
5696 5690 5683 5679 5674 5669 5664 5659 5654 5646 5635 5623 5613 5603 5596 5583 5571 5560 5567 5582 5595 5605 5619 5637 5653 5668 5683 5700 5716 5730 5744 5754 5767 5770 5773 5783 5793 5799 5802 5805 5810 5814 5817 5821
5693 5688 5681 5678 5674 5668 5663 5655 5645 5636 5627 5617 5608 5601 5592 5583 5571 5564 5567 5576 5589 5602 5612 5628 5643 5659 5673 5691 5707 5723 5732 5747 5758 5765 5774 5778 5784 5791 5792 5798 5804 5808 5812 5814
5692 5685 5681 5674 5669 5664 5659 5652 5644 5634 5624 5615 5607 5600 5593 5585 5578 5572 5570 5578 5588 5598 5611 5622 5639 5656 5671 5688 5704 5721 5727 5742 5751 5761 5768 5773 5777 5780 5783 5789 5794 5797 5803 5805
5690 5685 5678 5675 5669 5662 5658 5651 5646 5633 5624 5613 5606 5600 5595 5589 5585 5581 5580 5583 5593 5602 5612 5625 5640 5655 5667 5684 5701 5717 5728 5738 5747 5751 5760 5763 5768 5772 5778 5781 5786 5792 5798 5798
5688 5684 5679 5674 5669 5662 5656 5651 5641 5635 5623 5612 5608 5600 5597 5594 5593 5592 5591 5595 5602 5609 5618 5627 5641 5651 5666 5683 5699 5713 5722 5733 5743 5747 5754 5760 5762 5768 5770 5773 5779 5788 5789 5792
5683 5681 5678 5671 5667 5662 5658 5649 5643 5636 5628 5617 5607 5601 5598 5597 5596 5596 5599 5602 5605 5611 5620 5630 5640 5654 5667 5682 5696 5708 5719 5728 5735 5742 5750 5753 5755 5759 5759 5761 5770 5778 5783 5789
5680 5677 5674 5670 5664 5658 5653 5648 5645 5636 5629 5620 5612 5607 5603 5600 5600 5600 5601 5605 5607 5612 5619 5629 5640 5656 5666 5678 5692 5703 5713 5722 5729 5737 5746 5748 5743 5743 5739 5752 5761 5771 5778 5779
5675 5674 5671 5670 5664 5657 5654 5652 5645 5640 5631 5622 5615 5612 5608 5605 5604 5604 5605 5607 5609 5613 5621 5629 5638 5655 5667 5674 5688 5697 5708 5716 5724 5733 5738 5740 5743 5745 5745 5750 5757 5761 5764 5769
5673 5671 5664 5663 5660 5656 5652 5649 5644 5640 5633 5626 5619 5616 5612 5609 5606 5606 5606 5610 5612 5617 5627 5633 5640 5656 5662 5673 5685 5695 5705 5714 5722 5727 5730 5733 5735 5726 5736 5744 5744 5751 5756 5759
5670 5669 5664 5659 5657 5654 5650 5646 5644 5641 5635 5628 5623 5619 5615 5613 5611 5608 5608 5611 5614 5619 5629 5638 5644 5651 5662 5672 5683 5692 5701 5708 5717 5723 5724 5727 5726 5721 5725 5734 5736 5745 5747 5751
5667 5666 5663 5657 5655 5652 5649 5646 5642 5641 5637 5634 5628 5623 5618 5615 5613 5611 5612 5614 5618 5623 5631 5639 5647 5654 5662 5670 5680 5689 5696 5703 5711 5717 5719 5723 5724 5729 5724 5717 5730 5735 5739 5746
5664 5663 5661 5657 5654 5651 5648 5645 5642 5640 5637 5634 5629 5622 5617 5612 5606 5612 5615 5616 5620 5625 5632 5640 5646 5654 5660 5666 5674 5682 5689 5695 5702 5708 5711 5716 5718 5723 5718 5717 5720 5729 5733 5741
5663 5661 5659 5656 5654 5652 5647 5643 5640 5639 5637 5633 5630 5626 5622 5616 5613 5611 5616 5619 5623 5628 5633 5637 5644 5650 5655 5661 5668 5675 5680 5685 5690 5696 5703 5707 5712 5713 5715 5717 5721 5722 5728 5731
5662 5659 5658 5655 5653 5651 5647 5645 5642 5640 5639 5636 5633 5629 5626 5622 5620 5619 5619 5620 5626 5630 5635 5640 5642 5646 5650 5655 5662 5668 5674 5681 5686 5691 5697 5709 5709 5712 5714 5720 5718 5716 5719 5727
5661 5658 5657 5654 5652 5650 5648 5645 5642 5640 5639 5638 5635 5632 5629 5628 5626 5623 5623 5624 5627 5632 5636 5639 5643 5645 5649 5654 5658 5663 5669 5675 5684 5691 5696 5700 5703 5708 5709 5713 5715 5718 5721 5725
5657 5657 5654 5652 5650 5649 5646 5644 5643 5642 5642 5638 5636 5633 5631 5628 5629 5626 5624 5626 5629 5632 5635 5638 5639 5642 5645 5649 5656 5663 5667 5672 5676 5682 5686 5690 5694 5700 5704 5705 5710 5714 5717 5723
5656 5654 5652 5650 5648 5647 5644 5643 5643 5642 5640 5638 5636 5634 5632 5630 5630 5630 5629 5631 5630 5630 5632 5637 5639 5643 5646 5650 5653 5657 5659 5666 5669 5677 5678 5680 5686 5692 5699 5705 5710 5712 5717 5720
5653 5651 5650 5649 5646 5643 5642 5640 5641 5640 5639 5638 5636 5635 5633 5632 5631 5632 5632 5633 5633 5631 5633 5635 5637 5641 5645 5646 5650 5653 5659 5663 5669 5673 5679 5680 5687 5693 5698 5702 5708 5714 5717 5718
5647 5646 5646 5646 5643 5641 5638 5636 5637 5637 5636 5636 5635 5633 5633 5633 5632 5633 5633 5634 5633 5634 5635 5637 5639 5636 5639 5643 5646 5650 5657 5663 5665 5669 5673 5680 5687 5692 5697 5703 5707 5710 5712 5713
5642 5643 5642 5640 5639 5638 5636 5633 5630 5633 5634 5633 5633 5632 5631 5632 5633 5633 5633 5634 5635 5636 5635 5636 5636 5637 5636 5641 5648 5653 5658 5662 5666 5671 5675 5681 5686 5692 5697 5701 5704 5707 5711 5714
5637 5638 5638 5636 5635 5633 5632 5630 5627 5626 5629 5630 5630 5630 5630 5629 5631 5632 5633 5634 5636 5637 5637 5639 5640 5641 5644 5647 5651 5654 5659 5664 5666 5671 5676 5682 5688 5694 5697 5700 5703 5706 5710 5711